Location: Helds Island Access
(38.5526°N, 91.5997°W)
Time: 22:09:55
(UTC-06:00)

Daily predictions for brighter satellites

Satellite Brightness Start Highest point End
(mag) Time Altitude Azimuth Time Altitude Azimuth Time Altitude Azimuth
Cosmos 2026 Rocket 4.3 17:09:05 10° N 17:15:15 48° ENE 17:21:19 10° SSE
Cosmos 1437 Rocket 4.0 17:13:59 10° NNW 17:17:37 44° W 17:21:13 10° SSW
SJ-12 4.2 17:15:11 10° S 17:19:19 76° W 17:23:26 10° NNW
Cosmos 2369 Rocket 4.1 17:15:39 10° WSW 17:20:16 26° WNW 17:24:52 10° N
Cosmos 1743 4.2 17:18:08 10° NNE 17:20:45 17° ENE 17:23:22 10° ESE
CZ-4 R/B 1.9 17:17:40 10° SE 17:21:10 35° ENE 17:24:42 10° N
Meteor 1-28 Rocket 3.5 17:18:32 10° NNE 17:22:09 45° E 17:25:44 10° S
Cosmos 1975 3.6 17:18:52 10° NNE 17:22:26 30° ENE 17:26:00 10° SE
SJ-7 4.3 17:20:15 10° SSE 17:24:15 68° ENE 17:28:14 10° N
CSL-04 Rocket 3.6 17:21:14 10° SSE 17:26:36 78° ENE 17:32:04 10° N
Lacrosse 5 2.4 17:24:29 10° NW 17:29:30 64° SW 17:34:29 10° SSE
Cosmos 2150 Rocket 4.3 17:32:01 10° S 17:37:16 52° ESE 17:42:34 10° NNE
Cosmos 2142 Rocket 4.5 17:31:22 10° S 17:37:35 86° E 17:43:46 10° N
Cosmos 858 Rocket 4.4 17:32:42 10° S 17:37:52 74° ESE 17:43:04 10° NNE
BREEZE-M DEB (TANK) 4.3 17:37:21 10° NW 17:39:01 16° N 17:41:06 11° NE
NOSS 2-3 (D) 3.8 17:34:33 10° SSW 17:39:06 89° SE 17:44:21 10° NNE
Cosmos 990 Rocket 4.0 17:34:13 10° S 17:39:15 59° ESE 17:44:20 10° NNE
Cosmos 1484 Rocket 3.0 17:37:45 10° S 17:41:44 78° W 17:45:46 10° NNW
SPOT 3 Rocket 4.3 17:38:49 10° SE 17:43:14 29° ENE 17:47:38 10° N
Cosmos 2219 3.4 17:39:15 10° NNW 17:44:40 48° ENE 17:50:05 10° SE
Cosmos 1271 Rocket 3.5 17:42:28 10° NNE 17:45:46 28° ENE 17:49:04 10° SE
Cosmos 2227 Rocket 3.4 17:41:53 10° N 17:46:01 20° NE 17:48:56 14° E
Landsat 4 4.0 17:42:24 10° NNE 17:46:08 48° E 17:49:49 10° S
Meteor 1-18 Rocket 4.3 17:40:50 10° S 17:46:22 82° W 17:52:00 10° N
Cosmos 1428 Rocket 4.4 17:42:23 10° N 17:48:34 64° E 17:54:37 10° SSE
METEOR-M 4.2 17:46:49 10° SSE 17:52:00 56° ENE 17:57:14 10° N
Cosmos 1500 4.0 17:50:08 10° NNW 17:53:50 54° W 17:57:30 10° S
Cosmos 1455 Rocket 3.4 17:53:22 10° N 17:57:35 41° ENE 18:01:45 10° SSE
Cosmos 2279 Rocket 4.0 17:51:59 10° S 17:58:14 86° E 18:04:32 10° N
YAOGAN 1 2.4 17:56:41 10° SSE 18:01:00 77° ENE 18:05:19 10° N
Cosmos 1544 Rocket 3.7 17:56:48 10° N 18:01:03 48° E 18:05:15 10° SSE
NOAA 12 4.4 17:58:51 10° SE 18:03:48 42° ENE 18:08:44 10° N
ATLAS 2AS CENTAUR R/B 3.0 17:58:05 10° SSW 18:05:42 74° ESE 18:12:50 14° NE
Cosmos 1607 4.0 18:01:21 10° NNW 18:07:53 88° ENE 18:14:19 10° SSE
Cosmos 2180 Rocket 4.5 18:01:38 10° S 18:07:57 84° E 18:14:23 10° N
Meteor 2-4 Rocket 3.8 18:07:24 10° SSE 18:12:41 49° E 18:17:10 14° NNE
Cosmos 2297 Rocket 3.0 18:09:10 10° N 18:14:00 28° ENE 18:14:38 27° ENE
COSMO-SKYMED 1 2.5 18:10:10 10° NNE 18:14:32 85° ESE 18:18:52 10° SSW
ERS-2 2.0 18:13:18 10° SSE 18:16:57 71° ENE 18:20:37 10° N
Cosmos 389 Rocket 2.4 18:13:27 10° N 18:16:58 82° W 18:20:25 10° S
ISS -1.5 18:15:19 10° NNW 18:16:24 14° N 18:16:24 14° N
Delta 2 Rocket 4.1 18:13:40 10° WSW 18:18:59 62° S 18:21:15 30° ESE
Meteor 1-19 Rocket 4.2 18:16:15 10° S 18:21:52 88° E 18:27:38 10° N
ATLAS 3B R/B 3.0 18:16:17 10° NNW 18:22:33 41° NE 18:25:15 28° E
MOS 1 4.2 18:17:17 10° SSE 18:22:58 85° ENE 18:28:42 10° NNW
ALOS 2.1 18:19:34 10° SSE 18:24:12 69° ENE 18:28:51 10° N
Cosmos 158 Rocket 4.3 18:20:41 10° N 18:25:29 39° ENE 18:26:00 37° E
Hubble Space Telescope 2.8 18:23:32 10° SW 18:26:26 18° S 18:27:52 16° SSE
Cosmos 1666 2.6 18:22:56 10° N 18:26:42 80° W 18:30:26 10° S
Aureole 1 Rocket 4.3 18:21:20 10° NNW 18:27:06 73° WSW 18:34:33 10° S
Abrixas rocket 2.7 18:24:10 10° WSW 18:27:19 48° NNW 18:27:36 46° N
DELTA 2 R/B (1) 3.5 18:26:35 10° WSW 18:32:09 79° SSE 18:34:06 42° E
Cosmos 2369 3.8 18:30:58 10° S 18:36:26 52° ESE 18:37:46 43° ENE
Cosmos 1125 Rocket 3.5 18:32:45 10° S 18:37:55 56° ESE 18:39:01 47° ENE
SJ 16-02 1.7 18:33:45 10° S 18:37:21 45° SE 18:37:21 45° SE
Cosmos 2278 3.8 18:33:59 10° S 18:39:27 52° ESE 18:40:30 46° ENE
EO 1 Del DPAF 4.2 18:42:07 20° N 18:44:29 45° WNW 18:48:07 10° SW
FengYun 1-2 T 4.2 18:44:19 10° SSE 18:49:47 60° ENE 18:55:20 10° N
Cosmos 1656 3.6 18:44:53 10° S 18:50:22 59° ESE 18:50:41 58° E
Atlas Centaur 2 2.8 18:46:45 10° WSW 18:50:24 26° S 18:50:40 26° S
Cosmos 1536 Rocket 4.1 18:50:03 10° SSW 18:54:21 56° W 18:56:25 28° NNW
Cosmos 2266 Rocket 4.1 18:55:23 10° N 19:01:26 73° W 19:07:31 10° S
Meteor 1-23 Rocket 4.3 19:02:15 10° SSW 19:08:02 80° W 19:10:11 41° N
CENTAUR R/B 4.4 19:02:21 10° NNW 19:06:25 21° NNE 19:06:25 21° NNE
Cosmos 1697 Rocket 3.4 19:06:55 10° S 19:10:38 40° SSE 19:10:38 40° SSE
Cosmos 2082 4.0 19:08:18 10° NNW 19:12:32 52° N 19:12:32 52° N
USA 238 DEB 3.6 19:08:00 10° NNW 19:15:09 87° ENE 19:17:13 51° SE
USA 238 3.6 19:08:06 10° NNW 19:15:15 87° ENE 19:17:13 52° SE
Cosmos 372 Rocket 4.4 19:17:32 10° SSW 19:22:41 58° WNW 19:22:42 58° WNW
Cosmos 2227 Rocket 2.6 19:24:55 10° NNW 19:30:28 59° WSW 19:30:56 57° SW
NOSS 3-2 (A) 4.1 19:40:26 10° NNW 19:46:43 65° NNW 19:46:43 65° NNW
ATLAS 2AS CENTAUR R/B 4.4 19:50:42 10° W 19:57:28 30° NW 20:00:18 25° N
Cosmos 2297 Rocket 3.6 19:52:52 10° NW 19:56:34 33° WNW 19:56:34 33° WNW
ATLAS 3B R/B 3.8 20:07:10 10° NW 20:12:37 36° WSW 20:12:37 36° WSW
